Year,Month,Day,Hour,Minute,Value (Times are PST for temperature in C)
2014,04,01,00,00,3.40
2014,04,01,00,01,3.40
2014,04,01,00,02,3.40
2014,04,01,00,03,3.40
2014,04,01,00,04,3.40
2014,04,01,00,05,3.30
2014,04,01,00,06,3.30
2014,04,01,00,07,3.30
2014,04,01,00,08,3.30
2014,04,01,00,09,3.30
2014,04,01,00,10,3.30
2014,04,01,00,11,3.30
2014,04,01,00,12,3.20
2014,04,01,00,13,3.20
2014,04,01,00,14,3.20
2014,04,01,00,15,3.20
2014,04,01,00,16,3.20
2014,04,01,00,17,3.20
2014,04,01,00,18,3.20
2014,04,01,00,19,3.10
2014,04,01,00,20,3.10
2014,04,01,00,21,3.10
2014,04,01,00,22,3.00
2014,04,01,00,23,3.00
2014,04,01,00,24,3.00
2014,04,01,00,25,3.00
2014,04,01,00,26,3.00
2014,04,01,00,27,2.90
2014,04,01,00,28,2.90
2014,04,01,00,29,2.90
2014,04,01,00,30,2.90
2014,04,01,00,31,2.90
2014,04,01,00,32,2.80
2014,04,01,00,33,2.80
2014,04,01,00,34,2.80
2014,04,01,00,35,2.80
2014,04,01,00,36,2.80
2014,04,01,00,37,2.80
2014,04,01,00,38,2.80
2014,04,01,00,39,2.70
2014,04,01,00,40,2.70
2014,04,01,00,41,2.70
2014,04,01,00,42,2.70
2014,04,01,00,43,2.70
2014,04,01,00,44,2.70
2014,04,01,00,45,2.70
2014,04,01,00,46,2.70
2014,04,01,00,47,2.70
2014,04,01,00,48,2.70
2014,04,01,00,49,2.60
2014,04,01,00,50,2.60
2014,04,01,00,51,2.60
2014,04,01,00,52,2.60
2014,04,01,00,53,2.60
2014,04,01,00,54,2.50
2014,04,01,00,55,2.50
2014,04,01,00,56,2.50
2014,04,01,00,57,2.50
2014,04,01,00,58,2.40
2014,04,01,00,59,2.40
2014,04,01,01,00,2.40
2014,04,01,01,01,2.40
2014,04,01,01,02,2.40
2014,04,01,01,03,2.40
2014,04,01,01,04,2.30
2014,04,01,01,05,2.30
2014,04,01,01,06,2.30
2014,04,01,01,07,2.30
2014,04,01,01,08,2.30
2014,04,01,01,09,2.30
2014,04,01,01,10,2.30
2014,04,01,01,11,2.30
2014,04,01,01,12,2.30
2014,04,01,01,13,2.20
2014,04,01,01,14,2.20
2014,04,01,01,15,2.20
2014,04,01,01,16,2.20
2014,04,01,01,17,2.20
2014,04,01,01,18,2.20
2014,04,01,01,19,2.20
2014,04,01,01,20,2.20
2014,04,01,01,21,2.20
2014,04,01,01,22,2.20
2014,04,01,01,23,2.10
2014,04,01,01,24,2.10
2014,04,01,01,25,2.10
2014,04,01,01,26,2.10
2014,04,01,01,27,2.10
2014,04,01,01,28,2.10
2014,04,01,01,29,2.10
2014,04,01,01,30,2.10
2014,04,01,01,31,2.10
2014,04,01,01,32,2.10
2014,04,01,01,33,2.00
2014,04,01,01,34,2.00
2014,04,01,01,35,2.00
2014,04,01,01,36,2.00
2014,04,01,01,37,2.00
2014,04,01,01,38,2.00
2014,04,01,01,39,2.00
2014,04,01,01,40,2.00
2014,04,01,01,41,1.90
2014,04,01,01,42,1.90
2014,04,01,01,43,1.90
2014,04,01,01,44,1.90
2014,04,01,01,45,1.90
2014,04,01,01,46,1.80
2014,04,01,01,47,1.80
2014,04,01,01,48,1.80
2014,04,01,01,49,1.80
2014,04,01,01,50,1.80
2014,04,01,01,51,1.80
2014,04,01,01,52,1.80
2014,04,01,01,53,1.70
2014,04,01,01,54,1.70
2014,04,01,01,55,1.70
2014,04,01,01,56,1.70
2014,04,01,01,57,1.70
2014,04,01,01,58,1.70
2014,04,01,01,59,1.70
2014,04,01,02,00,1.70
2014,04,01,02,01,1.70
2014,04,01,02,02,1.70
2014,04,01,02,03,1.70
2014,04,01,02,04,1.70
2014,04,01,02,05,1.70
2014,04,01,02,06,1.70
2014,04,01,02,07,1.70
2014,04,01,02,08,1.60
2014,04,01,02,09,1.60
2014,04,01,02,10,1.60
2014,04,01,02,11,1.60
2014,04,01,02,12,1.60
2014,04,01,02,13,1.60
2014,04,01,02,14,1.60
2014,04,01,02,15,1.60
2014,04,01,02,16,1.60
2014,04,01,02,17,1.60
2014,04,01,02,18,1.60
2014,04,01,02,19,1.50
2014,04,01,02,20,1.50
2014,04,01,02,21,1.50
2014,04,01,02,22,1.50
2014,04,01,02,23,1.40
2014,04,01,02,24,1.40
2014,04,01,02,25,1.40
2014,04,01,02,26,1.40
2014,04,01,02,27,1.40
2014,04,01,02,28,1.30
2014,04,01,02,29,1.30
2014,04,01,02,30,1.30
2014,04,01,02,31,1.30
2014,04,01,02,32,1.30
2014,04,01,02,33,1.30
2014,04,01,02,34,1.30
2014,04,01,02,35,1.30
2014,04,01,02,36,1.30
2014,04,01,02,37,1.30
2014,04,01,02,38,1.30
2014,04,01,02,39,1.30
2014,04,01,02,40,1.30
2014,04,01,02,41,1.30
2014,04,01,02,42,1.20
2014,04,01,02,43,1.20
2014,04,01,02,44,1.20
2014,04,01,02,45,1.20
2014,04,01,02,46,1.20
2014,04,01,02,47,1.20
2014,04,01,02,48,1.20
2014,04,01,02,49,1.20
2014,04,01,02,50,1.10
2014,04,01,02,51,1.10
2014,04,01,02,52,1.10
2014,04,01,02,53,1.10
2014,04,01,02,54,1.10
2014,04,01,02,55,1.10
2014,04,01,02,56,1.10
2014,04,01,02,57,1.10
2014,04,01,02,58,1.00
2014,04,01,02,59,1.00
2014,04,01,03,00,1.00
2014,04,01,03,01,1.00
2014,04,01,03,02,1.00
2014,04,01,03,03,1.00
2014,04,01,03,04,1.00
2014,04,01,03,05,1.10
2014,04,01,03,06,1.00
2014,04,01,03,07,1.00
2014,04,01,03,08,1.00
2014,04,01,03,09,1.00
2014,04,01,03,10,1.00
2014,04,01,03,11,1.00
2014,04,01,03,12,0.90
2014,04,01,03,13,0.90
2014,04,01,03,14,0.90
2014,04,01,03,15,0.90
2014,04,01,03,16,0.90
2014,04,01,03,17,0.90
2014,04,01,03,18,0.80
2014,04,01,03,19,0.80
2014,04,01,03,20,0.80
2014,04,01,03,21,0.80
2014,04,01,03,22,0.80
2014,04,01,03,23,0.80
2014,04,01,03,24,0.70
2014,04,01,03,25,0.70
2014,04,01,03,26,0.70
2014,04,01,03,27,0.70
2014,04,01,03,28,0.70
2014,04,01,03,29,0.70
2014,04,01,03,30,0.70
2014,04,01,03,31,0.70
2014,04,01,03,32,0.60
2014,04,01,03,33,0.70
2014,04,01,03,34,0.60
2014,04,01,03,35,0.60
2014,04,01,03,36,0.60
2014,04,01,03,37,0.60
2014,04,01,03,38,0.60
2014,04,01,03,39,0.60
2014,04,01,03,40,0.60
2014,04,01,03,41,0.60
2014,04,01,03,42,0.60
2014,04,01,03,43,0.60
2014,04,01,03,44,0.60
2014,04,01,03,45,0.60
2014,04,01,03,46,0.60
2014,04,01,03,47,0.60
2014,04,01,03,48,0.60
2014,04,01,03,49,0.60
2014,04,01,03,50,0.60
2014,04,01,03,51,0.60
2014,04,01,03,52,0.60
2014,04,01,03,53,0.60
2014,04,01,03,54,0.50
2014,04,01,03,55,0.40
2014,04,01,03,56,0.40
2014,04,01,03,57,0.40
2014,04,01,03,58,0.40
2014,04,01,03,59,0.40
2014,04,01,04,00,0.30
2014,04,01,04,01,0.30
2014,04,01,04,02,0.30
2014,04,01,04,03,0.30
2014,04,01,04,04,0.30
2014,04,01,04,05,0.30
2014,04,01,04,06,0.30
2014,04,01,04,07,0.30
2014,04,01,04,08,0.30
2014,04,01,04,09,0.30
2014,04,01,04,10,0.30
2014,04,01,04,11,0.30
2014,04,01,04,12,0.30
2014,04,01,04,13,0.30
2014,04,01,04,14,0.30
2014,04,01,04,15,0.30
2014,04,01,04,16,0.30
2014,04,01,04,17,0.30
2014,04,01,04,18,0.30
2014,04,01,04,19,0.20
2014,04,01,04,20,0.20
2014,04,01,04,21,0.20
2014,04,01,04,22,0.20
2014,04,01,04,23,0.20
2014,04,01,04,24,0.20
2014,04,01,04,25,0.10
2014,04,01,04,26,0.10
2014,04,01,04,27,0.10
2014,04,01,04,28,0.10
2014,04,01,04,29,0.10
2014,04,01,04,30,0.20
2014,04,01,04,31,0.20
2014,04,01,04,32,0.20
2014,04,01,04,33,0.20
2014,04,01,04,34,0.10
2014,04,01,04,35,0.10
2014,04,01,04,36,0.10
2014,04,01,04,37,0.10
2014,04,01,04,38,0.10
2014,04,01,04,39,0.10
2014,04,01,04,40,0.10
2014,04,01,04,41,0.10
2014,04,01,04,42,0.10
2014,04,01,04,43,0.10
2014,04,01,04,44,0.00
2014,04,01,04,45,0.00
2014,04,01,04,46,0.00
2014,04,01,04,47,0.00
2014,04,01,04,48,0.00
2014,04,01,04,49,0.00
2014,04,01,04,50,0.00
2014,04,01,04,51,0.00
2014,04,01,04,52,-0.10
2014,04,01,04,53,-0.10
2014,04,01,04,54,-0.10
2014,04,01,04,55,-0.10
2014,04,01,04,56,-0.10
2014,04,01,04,57,-0.10
2014,04,01,04,58,-0.10
2014,04,01,04,59,-0.10
2014,04,01,05,00,-0.10
2014,04,01,05,01,-0.20
2014,04,01,05,02,-0.20
2014,04,01,05,03,-0.20
2014,04,01,05,04,-0.20
2014,04,01,05,05,-0.20
2014,04,01,05,06,-0.20
2014,04,01,05,07,-0.20
2014,04,01,05,08,-0.20
2014,04,01,05,09,-0.20
2014,04,01,05,10,-0.20
2014,04,01,05,11,-0.20
2014,04,01,05,12,-0.20
2014,04,01,05,13,-0.20
2014,04,01,05,14,-0.20
2014,04,01,05,15,-0.20
2014,04,01,05,16,-0.30
2014,04,01,05,17,-0.30
2014,04,01,05,18,-0.30
2014,04,01,05,19,-0.30
2014,04,01,05,20,-0.30
2014,04,01,05,21,-0.30
2014,04,01,05,22,-0.30
2014,04,01,05,23,-0.30
2014,04,01,05,24,-0.30
2014,04,01,05,25,-0.30
2014,04,01,05,26,-0.30
2014,04,01,05,27,-0.30
2014,04,01,05,28,-0.30
2014,04,01,05,29,-0.30
2014,04,01,05,30,-0.30
2014,04,01,05,31,-0.30
2014,04,01,05,32,-0.30
2014,04,01,05,33,-0.30
2014,04,01,05,34,-0.30
2014,04,01,05,35,-0.30
2014,04,01,05,36,-0.30
2014,04,01,05,37,-0.30
2014,04,01,05,38,-0.30
2014,04,01,05,39,-0.30
2014,04,01,05,40,-0.30
2014,04,01,05,41,-0.30
2014,04,01,05,42,-0.40
2014,04,01,05,43,-0.40
2014,04,01,05,44,-0.40
2014,04,01,05,45,-0.40
2014,04,01,05,46,-0.40
2014,04,01,05,47,-0.40
2014,04,01,05,48,-0.40
2014,04,01,05,49,-0.40
2014,04,01,05,50,-0.40
2014,04,01,05,51,-0.40
2014,04,01,05,52,-0.50
2014,04,01,05,53,-0.50
2014,04,01,05,54,-0.50
2014,04,01,05,55,-0.50
2014,04,01,05,56,-0.50
2014,04,01,05,57,-0.50
2014,04,01,05,58,-0.50
2014,04,01,05,59,-0.50
2014,04,01,06,00,-0.50
2014,04,01,06,01,-0.50
2014,04,01,06,02,-0.50
2014,04,01,06,03,-0.50
2014,04,01,06,04,-0.50
2014,04,01,06,05,-0.50
2014,04,01,06,06,-0.50
2014,04,01,06,07,-0.50
2014,04,01,06,08,-0.50
2014,04,01,06,09,-0.60
2014,04,01,06,10,-0.60
2014,04,01,06,11,-0.60
2014,04,01,06,12,-0.60
2014,04,01,06,13,-0.60
2014,04,01,06,14,-0.60
2014,04,01,06,15,-0.60
2014,04,01,06,16,-0.60
2014,04,01,06,17,-0.60
2014,04,01,06,18,-0.60
2014,04,01,06,19,-0.60
2014,04,01,06,20,-0.70
2014,04,01,06,21,-0.70
2014,04,01,06,22,-0.70
2014,04,01,06,23,-0.70
2014,04,01,06,24,-0.70
2014,04,01,06,25,-0.70
2014,04,01,06,26,-0.70
2014,04,01,06,27,-0.70
2014,04,01,06,28,-0.70
2014,04,01,06,29,-0.70
2014,04,01,06,30,-0.70
2014,04,01,06,31,-0.70
2014,04,01,06,32,-0.70
2014,04,01,06,33,-0.70
2014,04,01,06,34,-0.70
2014,04,01,06,35,-0.70
2014,04,01,06,36,-0.80
2014,04,01,06,37,-0.80
2014,04,01,06,38,-0.80
2014,04,01,06,39,-0.80
2014,04,01,06,40,-0.80
2014,04,01,06,41,-0.80
2014,04,01,06,42,-0.80
2014,04,01,06,43,-0.80
2014,04,01,06,44,-0.80
2014,04,01,06,45,-0.80
2014,04,01,06,46,-0.80
2014,04,01,06,47,-0.80
2014,04,01,06,48,-0.80
2014,04,01,06,49,-0.80
2014,04,01,06,50,-0.70
2014,04,01,06,51,-0.70
2014,04,01,06,52,-0.70
2014,04,01,06,53,-0.70
2014,04,01,06,54,-0.70
2014,04,01,06,55,-0.70
2014,04,01,06,56,-0.70
2014,04,01,06,57,-0.70
2014,04,01,06,58,-0.70
2014,04,01,06,59,-0.70
2014,04,01,07,00,-0.70
2014,04,01,07,01,-0.60
2014,04,01,07,02,-0.60
2014,04,01,07,03,-0.60
2014,04,01,07,04,-0.60
2014,04,01,07,05,-0.60
2014,04,01,07,06,-0.60
2014,04,01,07,07,-0.60
2014,04,01,07,08,-0.60
2014,04,01,07,09,-0.60
2014,04,01,07,10,-0.60
2014,04,01,07,11,-0.60
2014,04,01,07,12,-0.60
2014,04,01,07,13,-0.60
2014,04,01,07,14,-0.60
2014,04,01,07,15,-0.60
2014,04,01,07,16,-0.60
2014,04,01,07,17,-0.60
2014,04,01,07,18,-0.60
2014,04,01,07,19,-0.60
2014,04,01,07,20,-0.50
2014,04,01,07,21,-0.50
2014,04,01,07,22,-0.50
2014,04,01,07,23,-0.50
2014,04,01,07,24,-0.50
2014,04,01,07,25,-0.50
2014,04,01,07,26,-0.50
2014,04,01,07,27,-0.50
2014,04,01,07,28,-0.40
2014,04,01,07,29,-0.40
2014,04,01,07,30,-0.40
2014,04,01,07,31,-0.40
2014,04,01,07,32,-0.40
2014,04,01,07,33,-0.40
2014,04,01,07,34,-0.40
2014,04,01,07,35,-0.30
2014,04,01,07,36,-0.30
2014,04,01,07,37,-0.30
2014,04,01,07,38,-0.30
2014,04,01,07,39,-0.30
2014,04,01,07,40,-0.30
2014,04,01,07,41,-0.20
2014,04,01,07,42,-0.20
2014,04,01,07,43,-0.20
2014,04,01,07,44,-0.20
2014,04,01,07,45,-0.20
2014,04,01,07,46,-0.20
2014,04,01,07,47,-0.20
2014,04,01,07,48,-0.20
2014,04,01,07,49,-0.20
2014,04,01,07,50,-0.20
2014,04,01,07,51,-0.20
2014,04,01,07,52,-0.20
2014,04,01,07,53,-0.10
2014,04,01,07,54,-0.10
2014,04,01,07,55,-0.10
2014,04,01,07,56,-0.10
2014,04,01,07,57,-0.10
2014,04,01,07,58,-0.10
2014,04,01,07,59,-0.10
2014,04,01,08,00,-0.10
2014,04,01,08,01,-0.10
2014,04,01,08,02,0.00
2014,04,01,08,03,0.00
2014,04,01,08,04,0.00
2014,04,01,08,05,0.00
2014,04,01,08,06,0.00
2014,04,01,08,07,0.00
2014,04,01,08,08,0.00
2014,04,01,08,09,0.10
2014,04,01,08,10,0.10
2014,04,01,08,11,0.10
2014,04,01,08,12,0.10
2014,04,01,08,13,0.10
2014,04,01,08,14,0.10
2014,04,01,08,15,0.10
2014,04,01,08,16,0.10
2014,04,01,08,17,0.10
2014,04,01,08,18,0.10
2014,04,01,08,19,0.10
2014,04,01,08,20,0.10
2014,04,01,08,21,0.20
2014,04,01,08,22,0.20
2014,04,01,08,23,0.20
2014,04,01,08,24,0.20
2014,04,01,08,25,0.20
2014,04,01,08,26,0.20
2014,04,01,08,27,0.20
2014,04,01,08,28,0.20
2014,04,01,08,29,0.30
2014,04,01,08,30,0.30
2014,04,01,08,31,0.30
2014,04,01,08,32,0.30
2014,04,01,08,33,0.30
2014,04,01,08,34,0.30
2014,04,01,08,35,0.30
2014,04,01,08,36,0.30
2014,04,01,08,37,0.30
2014,04,01,08,38,0.30
2014,04,01,08,39,0.30
2014,04,01,08,40,0.30
2014,04,01,08,41,0.40
2014,04,01,08,42,0.40
2014,04,01,08,43,0.40
2014,04,01,08,44,0.40
2014,04,01,08,45,0.40
2014,04,01,08,46,0.40
2014,04,01,08,47,0.40
2014,04,01,08,48,0.40
2014,04,01,08,49,0.40
2014,04,01,08,50,0.40
2014,04,01,08,51,0.40
2014,04,01,08,52,0.40
2014,04,01,08,53,0.50
2014,04,01,08,54,0.50
2014,04,01,08,55,0.50
2014,04,01,08,56,0.50
2014,04,01,08,57,0.60
2014,04,01,08,58,0.60
2014,04,01,08,59,0.60
2014,04,01,09,00,0.60
2014,04,01,09,01,0.70
2014,04,01,09,02,0.70
2014,04,01,09,03,0.70
2014,04,01,09,04,0.80
2014,04,01,09,05,0.80
2014,04,01,09,06,0.80
2014,04,01,09,07,0.90
2014,04,01,09,08,0.90
2014,04,01,09,09,0.90
2014,04,01,09,10,0.90
2014,04,01,09,11,1.00
2014,04,01,09,12,1.00
2014,04,01,09,13,1.10
2014,04,01,09,14,1.10
2014,04,01,09,15,1.10
2014,04,01,09,16,1.10
2014,04,01,09,17,1.20
2014,04,01,09,18,1.20
2014,04,01,09,19,1.30
2014,04,01,09,20,1.40
2014,04,01,09,21,1.40
2014,04,01,09,22,1.40
2014,04,01,09,23,1.50
2014,04,01,09,24,1.50
2014,04,01,09,25,1.50
2014,04,01,09,26,1.50
2014,04,01,09,27,1.50
2014,04,01,09,28,1.60
2014,04,01,09,29,1.60
2014,04,01,09,30,1.60
2014,04,01,09,31,1.60
2014,04,01,09,32,1.60
2014,04,01,09,33,1.70
2014,04,01,09,34,1.70
2014,04,01,09,35,1.70
2014,04,01,09,36,1.70
2014,04,01,09,37,1.70
2014,04,01,09,38,1.80
2014,04,01,09,39,1.80
2014,04,01,09,40,1.90
2014,04,01,09,41,1.90
2014,04,01,09,42,1.90
2014,04,01,09,43,2.00
2014,04,01,09,44,2.10
2014,04,01,09,45,2.10
2014,04,01,09,46,2.20
2014,04,01,09,47,2.30
2014,04,01,09,48,2.30
2014,04,01,09,49,2.40
2014,04,01,09,50,2.50
2014,04,01,09,51,2.60
2014,04,01,09,52,2.70
2014,04,01,09,53,2.80
2014,04,01,09,54,2.80
2014,04,01,09,55,2.80
2014,04,01,09,56,2.80
2014,04,01,09,57,2.90
2014,04,01,09,58,2.90
2014,04,01,09,59,3.00
2014,04,01,10,00,3.10
2014,04,01,10,01,3.10
2014,04,01,10,02,3.20
2014,04,01,10,03,3.20
2014,04,01,10,04,3.20
2014,04,01,10,05,3.20
2014,04,01,10,06,3.30
2014,04,01,10,07,3.40
2014,04,01,10,08,3.40
2014,04,01,10,09,3.50
2014,04,01,10,10,3.50
2014,04,01,10,11,3.60
2014,04,01,10,12,3.70
2014,04,01,10,13,3.80
2014,04,01,10,14,3.90
2014,04,01,10,15,3.90
2014,04,01,10,16,4.00
2014,04,01,10,17,4.00
2014,04,01,10,18,4.10
2014,04,01,10,19,4.10
2014,04,01,10,20,4.20
2014,04,01,10,21,4.30
2014,04,01,10,22,4.30
2014,04,01,10,23,4.40
2014,04,01,10,24,4.50
2014,04,01,10,25,4.60
2014,04,01,10,26,4.70
2014,04,01,10,27,4.70
2014,04,01,10,28,4.80
2014,04,01,10,29,4.90
2014,04,01,10,30,5.00
2014,04,01,10,31,5.10
2014,04,01,10,32,5.20
2014,04,01,10,33,5.30
2014,04,01,10,34,5.40
2014,04,01,10,35,5.50
2014,04,01,10,36,5.60
2014,04,01,10,37,5.60
2014,04,01,10,38,5.70
2014,04,01,10,39,5.70
2014,04,01,10,40,5.80
2014,04,01,10,41,5.80
2014,04,01,10,42,5.90
2014,04,01,10,43,5.90
2014,04,01,10,44,6.10
2014,04,01,10,45,6.20
2014,04,01,10,46,6.30
2014,04,01,10,47,6.50
2014,04,01,10,48,6.60
2014,04,01,10,49,6.70
2014,04,01,10,50,6.80
2014,04,01,10,51,6.90
2014,04,01,10,52,6.90
2014,04,01,10,53,6.90
2014,04,01,10,54,7.00
2014,04,01,10,55,7.00
2014,04,01,10,56,7.00
2014,04,01,10,57,7.00
2014,04,01,10,58,7.10
2014,04,01,10,59,7.10
2014,04,01,11,00,7.20
2014,04,01,11,01,7.30
2014,04,01,11,02,7.30
2014,04,01,11,03,7.40
2014,04,01,11,04,7.40
2014,04,01,11,05,7.50
2014,04,01,11,06,7.60
2014,04,01,11,07,7.60
2014,04,01,11,08,7.70
2014,04,01,11,09,7.80
2014,04,01,11,10,7.90
2014,04,01,11,11,8.00
2014,04,01,11,12,8.10
2014,04,01,11,13,8.20
2014,04,01,11,14,8.20
2014,04,01,11,15,8.30
2014,04,01,11,16,8.40
2014,04,01,11,17,8.50
2014,04,01,11,18,8.60
2014,04,01,11,19,8.70
2014,04,01,11,20,8.80
2014,04,01,11,21,8.80
2014,04,01,11,22,8.80
2014,04,01,11,23,8.90
2014,04,01,11,24,8.80
2014,04,01,11,25,8.80
2014,04,01,11,26,8.80
2014,04,01,11,27,8.80
2014,04,01,11,28,8.80
2014,04,01,11,29,8.80
2014,04,01,11,30,8.90
2014,04,01,11,31,8.90
2014,04,01,11,32,9.00
2014,04,01,11,33,9.10
2014,04,01,11,34,9.20
2014,04,01,11,35,9.30
2014,04,01,11,36,9.40
2014,04,01,11,37,9.40
2014,04,01,11,38,9.50
2014,04,01,11,39,9.60
2014,04,01,11,40,9.70
2014,04,01,11,41,9.80
2014,04,01,11,42,9.90
2014,04,01,11,43,10.00
2014,04,01,11,44,10.10
2014,04,01,11,45,10.20
2014,04,01,11,46,10.20
2014,04,01,11,47,10.20
2014,04,01,11,48,10.20
2014,04,01,11,49,10.20
2014,04,01,11,50,10.20
2014,04,01,11,51,10.20
2014,04,01,11,52,10.20
2014,04,01,11,53,10.20
2014,04,01,11,54,10.20
2014,04,01,11,55,10.30
2014,04,01,11,56,10.30
2014,04,01,11,57,10.40
2014,04,01,11,58,10.50
2014,04,01,11,59,10.60
2014,04,01,12,00,10.70
2014,04,01,12,01,10.80
2014,04,01,12,02,10.90
2014,04,01,12,03,11.00
2014,04,01,12,04,11.10
2014,04,01,12,05,11.10
2014,04,01,12,06,11.10
2014,04,01,12,07,11.10
2014,04,01,12,08,11.10
2014,04,01,12,09,11.20
2014,04,01,12,10,11.20
2014,04,01,12,11,11.30
2014,04,01,12,12,11.30
2014,04,01,12,13,11.40
2014,04,01,12,14,11.50
2014,04,01,12,15,11.60
2014,04,01,12,16,11.70
2014,04,01,12,17,11.70
2014,04,01,12,18,11.70
2014,04,01,12,19,11.80
2014,04,01,12,20,11.80
2014,04,01,12,21,11.80
2014,04,01,12,22,11.80
2014,04,01,12,23,11.90
2014,04,01,12,24,11.90
2014,04,01,12,25,11.90
2014,04,01,12,26,12.00
2014,04,01,12,27,12.00
2014,04,01,12,28,12.10
2014,04,01,12,29,12.10
2014,04,01,12,30,12.20
2014,04,01,12,31,12.30
2014,04,01,12,32,12.30
2014,04,01,12,33,12.30
2014,04,01,12,34,12.30
2014,04,01,12,35,12.30
2014,04,01,12,36,12.30
2014,04,01,12,37,12.30
2014,04,01,12,38,12.40
2014,04,01,12,39,12.40
2014,04,01,12,40,12.50
2014,04,01,12,41,12.50
2014,04,01,12,42,12.60
2014,04,01,12,43,12.60
2014,04,01,12,44,12.70
2014,04,01,12,45,12.70
2014,04,01,12,46,12.80
2014,04,01,12,47,12.90
2014,04,01,12,48,13.00
2014,04,01,12,49,13.10
2014,04,01,12,50,13.20
2014,04,01,12,51,13.30
2014,04,01,12,52,13.40
2014,04,01,12,53,13.40
2014,04,01,12,54,13.50
2014,04,01,12,55,13.60
2014,04,01,12,56,13.60
2014,04,01,12,57,13.70
2014,04,01,12,58,13.70
2014,04,01,12,59,13.70
2014,04,01,13,00,13.70
2014,04,01,13,01,13.80
2014,04,01,13,02,13.90
2014,04,01,13,03,14.00
2014,04,01,13,04,14.10
2014,04,01,13,05,14.10
2014,04,01,13,06,14.10
2014,04,01,13,07,14.10
2014,04,01,13,08,14.10
2014,04,01,13,09,14.10
2014,04,01,13,10,14.20
2014,04,01,13,11,14.20
2014,04,01,13,12,14.20
2014,04,01,13,13,14.30
2014,04,01,13,14,14.30
2014,04,01,13,15,14.40
2014,04,01,13,16,14.40
2014,04,01,13,17,14.40
2014,04,01,13,18,14.50
2014,04,01,13,19,14.50
2014,04,01,13,20,14.60
2014,04,01,13,21,14.60
2014,04,01,13,22,14.70
2014,04,01,13,23,14.80
2014,04,01,13,24,14.80
2014,04,01,13,25,14.90
2014,04,01,13,26,15.00
2014,04,01,13,27,15.10
2014,04,01,13,28,15.10
2014,04,01,13,29,15.20
2014,04,01,13,30,15.30
2014,04,01,13,31,15.30
2014,04,01,13,32,15.30
2014,04,01,13,33,15.30
2014,04,01,13,34,15.30
2014,04,01,13,35,15.40
2014,04,01,13,36,15.50
2014,04,01,13,37,15.60
2014,04,01,13,38,15.70
2014,04,01,13,39,15.80
2014,04,01,13,40,15.80
2014,04,01,13,41,15.80
2014,04,01,13,42,15.80
2014,04,01,13,43,15.80
2014,04,01,13,44,15.80
2014,04,01,13,45,15.80
2014,04,01,13,46,15.80
2014,04,01,13,47,15.90
2014,04,01,13,48,15.90
2014,04,01,13,49,15.90
2014,04,01,13,50,15.90
2014,04,01,13,51,15.90
2014,04,01,13,52,16.00
2014,04,01,13,53,16.30
2014,04,01,13,54,16.30
2014,04,01,13,55,16.30
2014,04,01,13,56,16.40
2014,04,01,13,57,16.40
2014,04,01,13,58,16.30
2014,04,01,13,59,16.30
2014,04,01,14,00,16.30
2014,04,01,14,01,16.30
2014,04,01,14,02,16.30
2014,04,01,14,03,16.30
2014,04,01,14,04,16.30
2014,04,01,14,05,16.40
2014,04,01,14,06,16.40
2014,04,01,14,07,16.40
2014,04,01,14,08,16.30
2014,04,01,14,09,16.30
2014,04,01,14,10,16.20
2014,04,01,14,11,16.20
2014,04,01,14,12,16.20
2014,04,01,14,13,16.20
2014,04,01,14,14,16.20
2014,04,01,14,15,16.20
2014,04,01,14,16,16.20
2014,04,01,14,17,16.30
2014,04,01,14,18,16.20
2014,04,01,14,19,16.20
2014,04,01,14,20,16.30
2014,04,01,14,21,16.20
2014,04,01,14,22,16.30
2014,04,01,14,23,16.30
2014,04,01,14,24,16.30
2014,04,01,14,25,16.30
2014,04,01,14,26,16.20
2014,04,01,14,27,16.20
2014,04,01,14,28,16.20
2014,04,01,14,29,16.20
2014,04,01,14,30,16.20
2014,04,01,14,31,16.20
2014,04,01,14,32,16.20
2014,04,01,14,33,16.20
2014,04,01,14,34,16.20
2014,04,01,14,35,16.20
2014,04,01,14,36,16.20
2014,04,01,14,37,16.20
2014,04,01,14,38,16.20
2014,04,01,14,39,16.20
2014,04,01,14,40,16.20
2014,04,01,14,41,16.30
2014,04,01,14,42,16.30
2014,04,01,14,43,16.30
2014,04,01,14,44,16.30
2014,04,01,14,45,16.30
2014,04,01,14,46,16.40
2014,04,01,14,47,16.40
2014,04,01,14,48,16.40
2014,04,01,14,49,16.40
2014,04,01,14,50,16.30
2014,04,01,14,51,16.30
2014,04,01,14,52,16.30
2014,04,01,14,53,16.30
2014,04,01,14,54,16.40
2014,04,01,14,55,16.40
2014,04,01,14,56,16.40
2014,04,01,14,57,16.40
2014,04,01,14,58,16.40
2014,04,01,14,59,16.50
2014,04,01,15,00,16.60
2014,04,01,15,01,16.60
2014,04,01,15,02,16.50
2014,04,01,15,03,16.50
2014,04,01,15,04,16.40
2014,04,01,15,05,16.30
2014,04,01,15,06,16.30
2014,04,01,15,07,16.30
2014,04,01,15,08,16.40
2014,04,01,15,09,16.40
2014,04,01,15,10,16.50
2014,04,01,15,11,16.60
2014,04,01,15,12,16.60
2014,04,01,15,13,16.60
2014,04,01,15,14,16.70
2014,04,01,15,15,16.60
2014,04,01,15,16,16.60
2014,04,01,15,17,16.50
2014,04,01,15,18,16.40
2014,04,01,15,19,16.40
2014,04,01,15,20,16.40
2014,04,01,15,21,16.40
2014,04,01,15,22,16.40
2014,04,01,15,23,16.40
2014,04,01,15,24,16.40
2014,04,01,15,25,16.30
2014,04,01,15,26,16.20
2014,04,01,15,27,16.20
2014,04,01,15,28,16.10
2014,04,01,15,29,16.20
2014,04,01,15,30,16.20
2014,04,01,15,31,16.30
2014,04,01,15,32,16.40
2014,04,01,15,33,16.50
2014,04,01,15,34,16.50
2014,04,01,15,35,16.60
2014,04,01,15,36,16.60
2014,04,01,15,37,16.80
2014,04,01,15,38,16.90
2014,04,01,15,39,16.90
2014,04,01,15,40,16.90
2014,04,01,15,41,16.80
2014,04,01,15,42,16.70
2014,04,01,15,43,16.60
2014,04,01,15,44,16.50
2014,04,01,15,45,16.50
2014,04,01,15,46,16.40
2014,04,01,15,47,16.40
2014,04,01,15,48,16.40
2014,04,01,15,49,16.40
2014,04,01,15,50,16.40
2014,04,01,15,51,16.40
2014,04,01,15,52,16.30
2014,04,01,15,53,16.20
2014,04,01,15,54,16.20
2014,04,01,15,55,16.10
2014,04,01,15,56,16.00
2014,04,01,15,57,15.90
2014,04,01,15,58,15.90
2014,04,01,15,59,15.90
2014,04,01,16,00,16.00
2014,04,01,16,01,16.10
2014,04,01,16,02,16.10
2014,04,01,16,03,16.10
2014,04,01,16,04,16.00
2014,04,01,16,05,15.90
2014,04,01,16,06,15.80
2014,04,01,16,07,15.80
2014,04,01,16,08,15.80
2014,04,01,16,09,15.90
2014,04,01,16,10,16.00
2014,04,01,16,11,16.10
2014,04,01,16,12,16.10
2014,04,01,16,13,16.10
2014,04,01,16,14,16.00
2014,04,01,16,15,16.00
2014,04,01,16,16,16.00
2014,04,01,16,17,16.00
2014,04,01,16,18,16.00
2014,04,01,16,19,16.00
2014,04,01,16,20,16.10
2014,04,01,16,21,16.10
2014,04,01,16,22,16.10
2014,04,01,16,23,16.10
2014,04,01,16,24,16.10
2014,04,01,16,25,16.10
2014,04,01,16,26,16.10
2014,04,01,16,27,16.20
2014,04,01,16,28,16.20
2014,04,01,16,29,16.20
2014,04,01,16,30,16.20
2014,04,01,16,31,16.20
2014,04,01,16,32,16.20
2014,04,01,16,33,16.20
2014,04,01,16,34,16.20
2014,04,01,16,35,16.20
2014,04,01,16,36,16.20
2014,04,01,16,37,16.20
2014,04,01,16,38,16.10
2014,04,01,16,39,16.10
2014,04,01,16,40,16.10
2014,04,01,16,41,16.20
2014,04,01,16,42,16.20
2014,04,01,16,43,16.20
2014,04,01,16,44,16.20
2014,04,01,16,45,16.20
2014,04,01,16,46,16.10
2014,04,01,16,47,16.10
2014,04,01,16,48,16.00
2014,04,01,16,49,16.00
2014,04,01,16,50,16.00
2014,04,01,16,51,16.00
2014,04,01,16,52,16.10
2014,04,01,16,53,16.10
2014,04,01,16,54,16.20
2014,04,01,16,55,16.30
2014,04,01,16,56,16.30
2014,04,01,16,57,16.40
2014,04,01,16,58,16.40
2014,04,01,16,59,16.50
2014,04,01,17,00,16.50
2014,04,01,17,01,16.40
2014,04,01,17,02,16.40
2014,04,01,17,03,16.40
2014,04,01,17,04,16.30
2014,04,01,17,05,16.20
2014,04,01,17,06,16.20
2014,04,01,17,07,16.10
2014,04,01,17,08,16.00
2014,04,01,17,09,16.00
2014,04,01,17,10,15.90
2014,04,01,17,11,16.00
2014,04,01,17,12,16.00
2014,04,01,17,13,16.00
2014,04,01,17,14,16.10
2014,04,01,17,15,16.10
2014,04,01,17,16,16.10
2014,04,01,17,17,16.20
2014,04,01,17,18,16.30
2014,04,01,17,19,16.30
2014,04,01,17,20,16.30
2014,04,01,17,21,16.30
2014,04,01,17,22,16.30
2014,04,01,17,23,16.40
2014,04,01,17,24,16.40
2014,04,01,17,25,16.40
2014,04,01,17,26,16.40
2014,04,01,17,27,16.50
2014,04,01,17,28,16.50
2014,04,01,17,29,16.40
2014,04,01,17,30,16.30
2014,04,01,17,31,16.30
2014,04,01,17,32,16.20
2014,04,01,17,33,16.10
2014,04,01,17,34,16.10
2014,04,01,17,35,16.00
2014,04,01,17,36,16.00
2014,04,01,17,37,15.90
2014,04,01,17,38,15.80
2014,04,01,17,39,15.80
2014,04,01,17,40,15.90
2014,04,01,17,41,15.90